Weather in Casino

Australia     28°51′48″S   153°02′44″E
temp.,
°C
wind,
m/s
gust,
m/s
humid.,
%
clouds,
%
prec.,
mm/h
press.,
hPa
HPBL,
m
16 may, sun
sun1601:00+8wnw22790 0.0 101732
04:00+7nw11850 0.0 101811
07:00+6wnw11830 0.0 102121
10:00+14s14510 0.0 1021627
13:00+17sse13530 0.0 10191131
16:00+16ese11710 0.0 101927
19:00+10nnw22840 0.0 102114
22:00+9nnw22890 0.0 102219
17 may, mon
mon1701:00+8nw22920 0.0 102225
04:00+6nw22910 0.0 102124
07:00+6nw22815 0.0 102243
10:00+15wnw12525 0.0 1023400
13:00+18sse22420 0.0 1021847
16:00+16se25663 0.0 1022184
19:00+9sw11855 0.0 102610
22:00+8wnw11880 0.0 102711
18 may, tue
tue1801:00+7wnw11880 0.0 102714
04:00+8nw1183100 0.0 102720
07:00+10nw1174100 0.0 102952
10:00+16sw13613 0.0 1029494
13:00+18sse246277 0.0 10261185
16:00+15ene1179100 0.0 102612
19:00+14wnw0082100 0.0 102810
22:00+13wsw1186100 0.0 102812
19 may, wed
wed1901:00+13s1188100 0.0 102816
04:00+12ssw118866 0.0 102817
07:00+10w11963 0.0 102912
10:00+17s127211 0.0 1029545
13:00+19ese236459 0.2 10271099
16:00+17se23787 0.4 1026129
19:00+12s01930 0.0 102810
22:00+11wnw11955 0.0 102810
20 may, thu
thu2001:00+10wnw119620 0.0 102710
04:00+9nw11960 0.0 102710
07:00+10nw11960 0.0 102812
10:00+17sw12702 0.0 1027455
13:00+20se12544 0.0 10241283
16:00+18nne00715 0.0 102411
19:00+12n11880 0.0 102510
22:00+10wnw11950 0.0 102610